Regional Weather Roundup
Issued by NWS Albany, NY

Home | Current Version | Previous Version | Graphics & Text | Print | Product List | Glossary Off
Versions: 1 2 3 4 5 6 7 8 9 10 11 12 13 14 15 16 17 18 19 20 21 22 23 24 25 26 27 28

000
ASUS41 KALY 291110
RWRALY

NEW YORK STATE HOURLY WEATHER ROUNDUP
NATIONAL WEATHER SERVICE ALBANY NY
700 AM EDT SUN MAY 29 2016

NOTE: "FAIR" INDICATES FEW OR NO CLOUDS BELOW 12,000 FEET WITH NO
SIGNIFICANT WEATHER AND/OR NO OBSTRUCTIONS TO VISIBILITY.

NYZ032-033-038>043-046>054-057>066-NYZ062>081-082-084-291200-
EAST


CITY           SKY/WX    TMP DP  RH WIND       PRES   REMARKS
ALBANY         PTSUNNY   71  66  84 S5        30.11R
GLENS FALLS    SUNNY     68  64  87 CALM      30.11S
POUGHKEEPSIE   MOSUNNY   74  66  76 CALM      30.10S
NEWBURGH       MOSUNNY   72  68  88 W7        30.14R
MONTGOMERY     SUNNY     70  68  93 SW5       30.13R
WHITE PLAINS   SUNNY     71  60  68 CALM      30.14R
ISLIP          PTSUNNY   68  56  65 SW6       30.15R
NEW YORK CITY  MOSUNNY   75  61  61 S8        30.14R
CENTRAL PARK   SUNNY     73  56  54 W8G17     30.17R
$$

NYZ005>009-017-018-044>046-055-056-291200-
CENTRAL


CITY           SKY/WX    TMP DP  RH WIND       PRES   REMARKS
FULTON         MOSUNNY   74  67  78 SE3       30.07S
SYRACUSE       PTSUNNY   70  66  87 NE3       30.06S
ROME           PTSUNNY   68  63  84 SE6       30.10S
ELMIRA         PTSUNNY   67  64  90 CALM      30.11S
BINGHAMTON     SUNNY     69  66  90 S3        30.14F
MONTICELLO     SUNNY     64  64 100 CALM      30.18S
$$

NYZ026>034-041>043-087-291200-
NORTH


CITY           SKY/WX    TMP DP  RH WIND       PRES   REMARKS
WATERTOWN      CLOUDY    68  64  87 CALM      30.06R
FORT DRUM      NOT AVBL
MASSENA        CLOUDY    64  55  72 NE9       30.09S
SARANAC LAKE   PTSUNNY   59  56  89 CALM      30.13S FOG
PLATTSBURGH    SUNNY     65  60  84 CALM      30.09S
$$

NYZ001>004-010>016-019>021-085-291200-
WEST


CITY           SKY/WX    TMP DP  RH WIND       PRES   REMARKS
NIAGARA FALLS  MOSUNNY   72  64  76 SW7       30.07R
BUFFALO        MOSUNNY   70  64  81 W6        30.08R
DUNKIRK        SUNNY     70  65  84 SW3       30.09R
JAMESTOWN      PTSUNNY   64  63  94 S5        30.15R
WELLSVILLE     SUNNY     68  64  87 SW3       30.17S
ROCHESTER      CLOUDY    72  66  81 SW5       30.08R
PENN YAN       MOSUNNY   70  64  81 SW7       30.10S
$$

             KEY
       WCI = WIND CHILL INDEX
       VSB = VISIBILITY
       HX  = HEAT INDEX
$$




USA.gov is the U.S. government's official web portal to all federal, state and local government web resources and services.